IZ1GCT Weather Reports


Display with metric or nautical units.
time (UTC)temp
F
wind
direction
speed
MPH
gust
MPH
rain 1hr
in
rain 24hr
in
rain mn
in
humidity
%
barometer
mb
20260906080912 85 135 0.0 1.0 0.00 0.00 0.00 29 1026.5
20260906080411 85 135 2.0 3.0 0.00 0.00 0.00 30 1026.6
20260906075913 86 135 1.0 3.0 0.00 0.00 0.00 28 1026.7
20260906075412 86 135 1.0 2.0 0.00 0.00 0.00 30 1026.6
20260906074911 84 135 0.0 0.0 0.00 0.00 0.00 30 1026.5
20260906074413 82 135 1.0 2.0 0.00 0.00 0.00 30 1026.6
20260906073912 82 135 2.0 3.0 0.00 0.00 0.00 31 1026.6
20260906073411 81 135 2.0 5.0 0.00 0.00 0.00 34 1026.7
20260906072913 80 135 6.0 6.0 0.00 0.00 0.00 34 1026.7
20260906072412 80 135 2.0 6.0 0.00 0.00 0.00 35 1026.7
20260906071911 79 135 2.0 5.0 0.00 0.00 0.00 34 1026.6
20260906071413 79 135 3.0 5.0 0.00 0.00 0.00 35 1026.5
20260906070911 79 135 3.0 6.0 0.00 0.00 0.00 35 1026.6
20260906070413 78 135 6.0 6.0 0.00 0.00 0.00 35 1026.5
20260906065912 78 135 5.0 6.0 0.00 0.00 0.00 36 1026.5
20260906065412 78 135 3.0 6.0 0.00 0.00 0.00 36 1026.7
20260906064912 77 135 5.0 6.0 0.00 0.00 0.00 37 1026.5
20260906064411 77 135 3.0 7.0 0.00 0.00 0.00 37 1026.5
20260906063913 77 135 5.0 6.0 0.00 0.00 0.00 38 1026.4
20260906063412 77 135 6.0 8.0 0.00 0.00 0.00 37 1026.4
20260906062912 76 135 3.0 6.0 0.00 0.00 0.00 38 1026.5
20260906062411 76 135 3.0 6.0 0.00 0.00 0.00 38 1026.5
20260906061912 75 135 5.0 6.0 0.00 0.00 0.00 39 1026.5
20260906061412 75 135 3.0 6.0 0.00 0.00 0.00 40 1026.4
20260906060911 74 135 3.0 6.0 0.00 0.00 0.00 40 1026.4
20260906060413 74 135 2.0 5.0 0.00 0.00 0.00 42 1026.2
20260906055912 72 135 0.0 0.0 0.00 0.00 0.00 47 1026.3
20260906055412 72 135 1.0 2.0 0.00 0.00 0.00 47 1026.3
20260906054913 71 156 2.0 3.0 0.00 0.00 0.00 49 1026.2
20260906054412 69 158 1.0 2.0 0.00 0.00 0.00 50 1026.1
20260906053912 68 158 0.0 1.0 0.00 0.00 0.00 51 1026.0
20260906053411 68 158 1.0 3.0 0.00 0.00 0.00 51 1026.0
20260906052913 68 135 2.0 5.0 0.00 0.00 0.00 50 1025.9
20260906052412 67 135 2.0 3.0 0.00 0.00 0.00 51 1025.9
20260906051911 68 135 1.0 2.0 0.00 0.00 0.00 51 1025.9
20260906051413 68 158 1.0 1.0 0.00 0.00 0.00 50 1025.8
20260906050912 69 139 3.0 3.0 0.00 0.00 0.00 49 1025.6
20260906050412 69 145 3.0 6.0 0.00 0.00 0.00 49 1025.7
20260906045911 69 135 2.0 5.0 0.00 0.00 0.00 50 1025.7
20260906045412 68 135 2.0 3.0 0.00 0.00 0.00 50 1025.5
20260906044912 68 158 1.0 3.0 0.00 0.00 0.00 50 1025.5
20260906044411 68 145 1.0 3.0 0.00 0.00 0.00 50 1025.5
20260906043913 68 140 2.0 3.0 0.00 0.00 0.00 51 1025.4
20260906043412 67 153 1.0 2.0 0.00 0.00 0.00 51 1025.4
20260906042912 67 155 2.0 3.0 0.00 0.00 0.00 51 1025.2
20260906042411 67 135 2.0 3.0 0.00 0.00 0.00 50 1025.2
20260906041912 68 158 1.0 2.0 0.00 0.00 0.00 51 1025.3
20260906041412 68 153 2.0 3.0 0.00 0.00 0.00 51 1025.1
20260906040911 66 158 1.0 3.0 0.00 0.00 0.00 52 1025.1
20260906040413 67 135 0.0 1.0 0.00 0.00 0.00 52 1025.2
20260906035413 67 148 1.0 1.0 0.00 0.00 0.00 51 1025.1
20260906034912 67 153 3.0 7.0 0.00 0.00 0.00 52 1025.1
20260906034412 67 135 2.0 3.0 0.00 0.00 0.00 52 1025.2
20260906033911 67 143 0.0 1.0 0.00 0.00 0.00 51 1025.1
20260906033412 67 152 3.0 3.0 0.00 0.00 0.00 51 1025.2
20260906032912 67 158 3.0 3.0 0.00 0.00 0.00 51 1025.1
20260906032411 68 135 2.0 3.0 0.00 0.00 0.00 50 1025.0
20260906031913 68 158 3.0 5.0 0.00 0.00 0.00 50 1025.1
20260906031412 69 158 1.0 2.0 0.00 0.00 0.00 49 1025.0
20260906030911 69 154 3.0 5.0 0.00 0.00 0.00 47 1024.9
20260906030413 70 154 2.0 5.0 0.00 0.00 0.00 46 1025.0
20260906025912 71 135 2.0 3.0 0.00 0.00 0.00 44 1025.0
20260906025412 72 194 1.0 5.0 0.00 0.00 0.00 43 1024.9
20260906024913 72 135 5.0 7.0 0.00 0.00 0.00 43 1024.9
20260906024412 71 135 3.0 5.0 0.00 0.00 0.00 44 1024.8
20260906023911 71 254 2.0 5.0 0.00 0.00 0.00 45 1024.7
20260906023413 71 225 1.0 1.0 0.00 0.00 0.00 45 1024.8
20260906022911 71 250 1.0 2.0 0.00 0.00 0.00 44 1024.7
20260906022413 72 135 2.0 3.0 0.00 0.00 0.00 44 1024.6
20260906021912 71 242 5.0 7.0 0.00 0.00 0.00 45 1024.7
20260906021412 70 266 2.0 3.0 0.00 0.00 0.00 47 1024.6
20260906020911 70 225 1.0 2.0 0.00 0.00 0.00 49 1024.6
20260906020412 68 135 3.0 6.0 0.00 0.00 0.00 50 1024.5
20260906015911 68 139 3.0 5.0 0.00 0.00 0.00 51 1024.6
20260906015413 69 187 5.0 8.0 0.00 0.00 0.00 50 1024.5
20260906014912 68 180 3.0 6.0 0.00 0.00 0.00 51 1024.4
20260906014412 68 95 1.0 2.0 0.00 0.00 0.00 51 1024.6
20260906013911 68 180 2.0 5.0 0.00 0.00 0.00 52 1024.5
20260906013412 68 215 0.0 2.0 0.00 0.00 0.00 51 1024.6
20260906012911 69 45 0.0 1.0 0.00 0.00 0.00 50 1024.5
20260906012413 69 45 1.0 2.0 0.00 0.00 0.00 50 1024.5
20260906011912 69 210 3.0 5.0 0.00 0.00 0.00 50 1024.6
20260906011412 69 270 2.0 3.0 0.00 0.00 0.00 50 1024.5
20260906010911 70 240 0.0 1.0 0.00 0.00 0.00 49 1024.5
20260906010413 70 225 0.0 3.0 0.00 0.00 0.00 49 1024.5
20260906005911 70 225 3.0 6.0 0.00 0.00 0.00 48 1024.3
20260906005412 70 135 2.0 5.0 0.00 0.00 0.00 50 1024.3
20260906004912 70 135 5.0 6.0 0.00 0.00 0.00 48 1024.2
20260906004411 71 135 0.0 1.0 0.00 0.00 0.00 47 1024.4
20260906003913 71 135 1.0 2.0 0.00 0.00 0.00 49 1024.4
20260906003411 71 158 2.0 3.0 0.00 0.00 0.00 48 1024.4
20260906002913 71 145 2.0 3.0 0.00 0.00 0.00 50 1024.4
20260906002412 71 158 3.0 3.0 0.00 0.00 0.00 50 1024.3
20260906001911 71 315 2.0 3.0 0.00 0.00 0.00 48 1024.4
20260906001411 72 315 1.0 2.0 0.00 0.00 0.00 47 1024.3
20260906000911 73 326 2.0 3.0 0.00 0.00 0.00 42 1024.4
20260906000413 72 158 5.0 7.0 0.00 0.00 0.00 46 1024.2
20260905235912 73 225 1.0 2.0 0.00 0.00 0.00 43 1024.1
20260905235411 73 180 5.0 5.0 0.00 0.00 0.00 42 1024.1
20260905234911 73 135 1.0 3.0 0.00 0.00 0.00 41 1024.2
20260905234412 74 217 3.0 5.0 0.00 0.00 0.00 41 1024.1
20260905233912 75 180 3.0 5.0 0.00 0.00 0.00 39 1023.9
20260905233411 76 135 1.0 2.0 0.00 0.00 0.00 38 1023.9
20260905232911 76 135 2.0 3.0 0.00 0.00 0.00 36 1023.9
20260905232412 76 135 0.0 0.0 0.00 0.00 0.00 37 1023.9
20260905231912 76 135 1.0 3.0 0.00 0.00 0.00 40 1024.0
20260905231411 77 68 2.0 5.0 0.00 0.00 0.00 40 1024.0
20260905230912 77 135 0.0 0.0 0.00 0.00 0.00 38 1024.0
20260905230411 78 107 1.0 3.0 0.00 0.00 0.00 36 1024.0
20260905225912 79 45 2.0 3.0 0.00 0.00 0.00 32 1024.0
20260905225412 80 45 1.0 2.0 0.00 0.00 0.00 30 1023.9
20260905224911 81 355 1.0 2.0 0.00 0.00 0.00 30 1024.0
20260905224412 82 270 2.0 3.0 0.00 0.00 0.00 26 1023.9
20260905223912 82 242 3.0 5.0 0.00 0.00 0.00 26 1023.9
20260905223411 82 253 6.0 9.0 0.00 0.00 0.00 26 1023.9
20260905222911 81 168 5.0 10.0 0.00 0.00 0.00 30 1023.9
20260905222412 81 180 3.0 6.0 0.00 0.00 0.00 30 1023.8
20260905221912 80 160 1.0 5.0 0.00 0.00 0.00 31 1023.8
20260905221411 79 270 0.0 1.0 0.00 0.00 0.00 31 1023.8
20260905220913 79 270 2.0 3.0 0.00 0.00 0.00 32 1023.7
20260905220412 80 270 2.0 3.0 0.00 0.00 0.00 31 1023.5
20260905215912 81 270 2.0 3.0 0.00 0.00 0.00 30 1023.7
20260905215411 81 270 1.0 3.0 0.00 0.00 0.00 27 1023.7
20260905214912 82 270 5.0 7.0 0.00 0.00 0.00 26 1023.7
20260905214412 82 245 7.0 10.0 0.00 0.00 0.00 25 1023.7
20260905213911 83 225 5.0 9.0 0.00 0.00 0.00 25 1023.6
20260905213411 83 225 8.0 12.0 0.00 0.00 0.00 24 1023.6
20260905212912 83 284 6.0 8.0 0.00 0.00 0.00 24 1023.6
20260905212412 83 348 3.0 10.0 0.00 0.00 0.00 24 1023.6
20260905211911 84 243 5.0 8.0 0.00 0.00 0.00 24 1023.4
20260905211411 84 258 7.0 10.0 0.00 0.00 0.00 24 1023.5
20260905210912 84 135 5.0 7.0 0.00 0.00 0.00 24 1023.5
20260905210412 84 135 3.0 6.0 0.00 0.00 0.00 23 1023.5
20260905205911 84 135 5.0 6.0 0.00 0.00 0.00 24 1023.5
20260905205412 84 135 6.0 10.0 0.00 0.00 0.00 24 1023.5
20260905204912 84 135 5.0 6.0 0.00 0.00 0.00 23 1023.6
20260905204411 84 135 12.0 16.0 0.00 0.00 0.00 23 1023.4
20260905203912 84 135 7.0 9.0 0.00 0.00 0.00 24 1023.3
20260905203412 84 135 8.0 13.0 0.00 0.00 0.00 24 1023.3
20260905202911 84 135 7.0 9.0 0.00 0.00 0.00 23 1023.3
20260905202412 84 135 5.0 6.0 0.00 0.00 0.00 24 1023.4
20260905201912 84 135 5.0 8.0 0.00 0.00 0.00 24 1023.3
20260905201411 84 135 3.0 5.0 0.00 0.00 0.00 24 1023.1
20260905200913 84 135 5.0 6.0 0.00 0.00 0.00 24 1023.3
20260905200412 84 135 5.0 9.0 0.00 0.00 0.00 24 1023.1
20260905195911 84 135 9.0 12.0 0.00 0.00 0.00 24 1023.0
20260905195411 84 135 6.0 8.0 0.00 0.00 0.00 24 1022.8
20260905194912 85 135 3.0 6.0 0.00 0.00 0.00 23 1022.8
20260905194411 85 135 6.0 8.0 0.00 0.00 0.00 23 1022.7
20260905193911 85 135 3.0 6.0 0.00 0.00 0.00 23 1022.6
20260905193412 85 135 7.0 12.0 0.00 0.00 0.00 23 1022.6
20260905192912 85 135 3.0 6.0 0.00 0.00 0.00 23 1022.5
20260905192412 85 158 3.0 6.0 0.00 0.00 0.00 23 1022.3
20260905191911 85 135 2.0 5.0 0.00 0.00 0.00 23 1022.3
20260905191411 85 135 1.0 1.0 0.00 0.00 0.00 23 1022.4
20260905190911 85 135 3.0 5.0 0.00 0.00 0.00 23 1022.1
20260905190412 85 138 2.0 3.0 0.00 0.00 0.00 23 1022.0
20260905185912 86 135 1.0 1.0 0.00 0.00 0.00 23 1021.9
20260905185411 86 135 1.0 3.0 0.00 0.00 0.00 23 1021.8
20260905184912 87 130 2.0 5.0 0.00 0.00 0.00 22 1021.7
20260905184411 87 144 2.0 5.0 0.00 0.00 0.00 22 1021.6
20260905183912 87 135 2.0 6.0 0.00 0.00 0.00 23 1021.5
20260905183412 87 135 2.0 5.0 0.00 0.00 0.00 22 1021.4
20260905182911 87 158 2.0 6.0 0.00 0.00 0.00 22 1021.3
20260905182412 87 135 2.0 6.0 0.00 0.00 0.00 22 1021.4
20260905181912 87 135 6.0 9.0 0.00 0.00 0.00 21 1021.4
20260905181412 88 155 2.0 3.0 0.00 0.00 0.00 22 1021.2
20260905180912 88 146 2.0 5.0 0.00 0.00 0.00 22 1021.3
20260905180411 88 225 2.0 5.0 0.00 0.00 0.00 21 1021.0
20260905175912 89 135 5.0 6.0 0.00 0.00 0.00 21 1021.0
20260905175411 89 135 3.0 8.0 0.00 0.00 0.00 21 1021.0
20260905174911 89 135 9.0 13.0 0.00 0.00 0.00 21 1021.0
20260905174412 89 158 9.0 14.0 0.00 0.00 0.00 21 1020.8
20260905173911 89 151 5.0 8.0 0.00 0.00 0.00 21 1020.9
20260905173411 90 225 6.0 9.0 0.00 0.00 0.00 21 1020.8
20260905172911 90 264 5.0 6.0 0.00 0.00 0.00 21 1020.8
20260905172411 90 270 12.0 16.0 0.00 0.00 0.00 21 1020.7
20260905171912 90 180 9.0 15.0 0.00 0.00 0.00 21 1020.7
20260905171412 91 225 6.0 10.0 0.00 0.00 0.00 20 1020.7
20260905170912 91 301 7.0 10.0 0.00 0.00 0.00 20 1020.7
20260905170411 91 270 7.0 15.0 0.00 0.00 0.00 20 1020.7
20260905165911 91 270 12.0 14.0 0.00 0.00 0.00 20 1020.7
20260905165412 92 301 9.0 20.0 0.00 0.00 0.00 20 1020.8
20260905164912 92 270 8.0 13.0 0.00 0.00 0.00 20 1020.6
20260905164411 92 315 13.0 16.0 0.00 0.00 0.00 20 1020.7
20260905163913 92 315 8.0 12.0 0.00 0.00 0.00 20 1020.7
20260905163412 92 270 10.0 17.0 0.00 0.00 0.00 20 1020.7
20260905162911 92 270 7.0 8.0 0.00 0.00 0.00 20 1020.7
20260905162411 93 270 9.0 13.0 0.00 0.00 0.00 20 1020.7
20260905161912 93 312 5.0 7.0 0.00 0.00 0.00 20 1020.6
20260905161411 94 285 10.0 16.0 0.00 0.00 0.00 20 1020.7
20260905160911 94 287 9.0 20.0 0.00 0.00 0.00 20 1020.6
20260905160412 94 315 14.0 17.0 0.00 0.00 0.00 11 1020.5
20260905155410 94 225 7.0 10.0 0.00 0.00 0.00 20 1020.5
20260905154910 93 225 8.0 12.0 0.00 0.00 0.00 20 1020.6
20260905154411 93 178 10.0 14.0 0.00 0.00 0.00 20 1020.5
20260905153910 94 197 14.0 23.0 0.00 0.00 0.00 11 1020.5
20260905153410 94 270 9.0 13.0 0.00 0.00 0.00 11 1020.4
20260905152910 94 278 13.0 20.0 0.00 0.00 0.00 20 1020.4
20260905152410 94 295 9.0 13.0 0.00 0.00 0.00 11 1020.5
20260905151911 93 357 12.0 17.0 0.00 0.00 0.00 13 1020.4
20260905151410 94 276 10.0 15.0 0.00 0.00 0.00 11 1020.5
20260905150910 94 270 15.0 18.0 0.00 0.00 0.00 11 1020.4
20260905150411 95 309 14.0 18.0 0.00 0.00 0.00 11 1020.5
20260905145910 95 315 15.0 18.0 0.00 0.00 0.00 11 1020.3
20260905145411 96 337 7.0 8.0 0.00 0.00 0.00 11 1020.4
20260905144910 95 283 5.0 13.0 0.00 0.00 0.00 11 1020.4
20260905144409 94 292 8.0 13.0 0.00 0.00 0.00 11 1020.3
20260905143910 95 280 17.0 23.0 0.00 0.00 0.00 11 1020.4
20260905143411 95 286 9.0 17.0 0.00 0.00 0.00 11 1020.4
20260905142911 95 315 10.0 20.0 0.00 0.00 0.00 11 1020.4
20260905142410 95 249 10.0 29.0 0.00 0.00 0.00 11 1020.3
20260905141909 95 292 18.0 23.0 0.00 0.00 0.00 11 1020.4
20260905141411 96 302 13.0 17.0 0.00 0.00 0.00 11 1020.4
20260905140910 96 280 10.0 20.0 0.00 0.00 0.00 11 1020.5
20260905140409 95 294 13.0 18.0 0.00 0.00 0.00 11 1020.4
20260905135911 95 3 15.0 21.0 0.00 0.00 0.00 12 1020.4
20260905135410 96 290 12.0 18.0 0.00 0.00 0.00 12 1020.5
20260905134909 96 0 13.0 17.0 0.00 0.00 0.00 12 1020.3
20260905134411 96 282 8.0 13.0 0.00 0.00 0.00 12 1020.5
20260905133910 96 315 13.0 15.0 0.00 0.00 0.00 12 1020.5
20260905133410 96 301 12.0 16.0 0.00 0.00 0.00 13 1020.5
20260905132911 96 263 8.0 12.0 0.00 0.00 0.00 12 1020.6
20260905132410 96 287 15.0 20.0 0.00 0.00 0.00 13 1020.6
20260905131910 96 262 7.0 10.0 0.00 0.00 0.00 12 1020.7
20260905131411 96 270 8.0 13.0 0.00 0.00 0.00 13 1020.7
20260905130910 96 248 7.0 9.0 0.00 0.00 0.00 13 1020.8
20260905130411 96 57 7.0 10.0 0.00 0.00 0.00 12 1020.7
20260905125910 96 315 12.0 16.0 0.00 0.00 0.00 12 1020.7
20260905125410 95 298 9.0 15.0 0.00 0.00 0.00 13 1020.7
20260905124911 95 278 14.0 20.0 0.00 0.00 0.00 13 1020.8
20260905124410 95 284 14.0 20.0 0.00 0.00 0.00 13 1020.8
20260905123909 95 285 10.0 17.0 0.00 0.00 0.00 14 1021.0
20260905123411 96 8 10.0 13.0 0.00 0.00 0.00 13 1020.8
20260905122911 95 251 9.0 13.0 0.00 0.00 0.00 13 1021.0
20260905122410 95 302 13.0 18.0 0.00 0.00 0.00 13 1020.9
20260905121910 95 290 9.0 16.0 0.00 0.00 0.00 13 1020.9
20260905121411 95 10 12.0 17.0 0.00 0.00 0.00 13 1021.0
20260905120910 94 347 12.0 20.0 0.00 0.00 0.00 13 1020.8
20260905120410 95 244 7.0 9.0 0.00 0.00 0.00 13 1020.9
20260905115911 95 270 12.0 16.0 0.00 0.00 0.00 13 1020.8
20260905115410 95 298 8.0 12.0 0.00 0.00 0.00 13 1020.9
20260905114910 95 312 7.0 10.0 0.00 0.00 0.00 13 1020.9
20260905114411 95 270 12.0 15.0 0.00 0.00 0.00 13 1021.0
20260905113911 94 286 5.0 10.0 0.00 0.00 0.00 13 1020.8
20260905113410 94 290 8.0 15.0 0.00 0.00 0.00 13 1021.0
20260905112911 94 318 12.0 17.0 0.00 0.00 0.00 13 1020.9
20260905112411 95 343 15.0 20.0 0.00 0.00 0.00 13 1021.0
20260905111910 95 315 15.0 21.0 0.00 0.00 0.00 13 1021.0
20260905111409 94 314 10.0 17.0 0.00 0.00 0.00 13 1021.1
20260905110911 94 230 9.0 15.0 0.00 0.00 0.00 13 1021.2
20260905110410 94 277 15.0 20.0 0.00 0.00 0.00 13 1021.4
20260905105909 94 270 9.0 10.0 0.00 0.00 0.00 13 1021.3
20260905105411 94 289 9.0 16.0 0.00 0.00 0.00 13 1021.4
20260905104910 94 334 17.0 23.0 0.00 0.00 0.00 13 1021.4
20260905104411 93 270 14.0 20.0 0.00 0.00 0.00 14 1021.4
20260905103910 94 289 8.0 13.0 0.00 0.00 0.00 14 1021.2
20260905103410 93 298 10.0 22.0 0.00 0.00 0.00 13 1021.3
20260905102911 94 248 14.0 20.0 0.00 0.00 0.00 14 1021.5
20260905102410 94 270 17.0 26.0 0.00 0.00 0.00 14 1021.5
20260905101910 94 270 12.0 20.0 0.00 0.00 0.00 14 1021.5
20260905101409 93 265 6.0 8.0 0.00 0.00 0.00 14 1021.4
20260905100910 93 304 15.0 21.0 0.00 0.00 0.00 14 1021.5
20260905100412 92 315 21.0 29.0 0.00 0.00 0.00 14 1021.5
20260905095910 93 45 16.0 23.0 0.00 0.00 0.00 14 1021.5
20260905095410 93 307 17.0 23.0 0.00 0.00 0.00 14 1021.5
20260905094909 93 288 7.0 17.0 0.00 0.00 0.00 13 1021.5
20260905094411 93 271 13.0 21.0 0.00 0.00 0.00 14 1021.5
20260905093910 92 270 13.0 17.0 0.00 0.00 0.00 13 1021.6
20260905093410 92 270 10.0 15.0 0.00 0.00 0.00 13 1021.7
20260905092911 92 267 8.0 15.0 0.00 0.00 0.00 14 1021.4
20260905092411 91 315 16.0 21.0 0.00 0.00 0.00 13 1021.5
20260905091910 91 135 12.0 17.0 0.00 0.00 0.00 13 1021.6
20260905091410 91 135 12.0 17.0 0.00 0.00 0.00 13 1021.6
20260905090911 91 135 15.0 20.0 0.00 0.00 0.00 13 1021.6
20260905090411 90 135 13.0 18.0 0.00 0.00 0.00 13 1021.7
20260905085910 90 135 8.0 10.0 0.00 0.00 0.00 13 1021.7
20260905085410 90 135 15.0 20.0 0.00 0.00 0.00 16 1021.8
20260905084909 90 135 8.0 14.0 0.00 0.00 0.00 20 1021.6
20260905084411 90 135 7.0 10.0 0.00 0.00 0.00 20 1021.6
20260905083910 89 135 8.0 17.0 0.00 0.00 0.00 20 1021.7
20260905083409 89 135 9.0 16.0 0.00 0.00 0.00 20 1021.7
20260905082911 89 150 9.0 17.0 0.00 0.00 0.00 20 1021.7
20260905082410 88 135 12.0 17.0 0.00 0.00 0.00 20 1021.7
20260905081909 88 135 10.0 15.0 0.00 0.00 0.00 20 1021.7
20260905081410 88 135 9.0 14.0 0.00 0.00 0.00 21 1021.7